Regional Weather Roundup
Issued by NWS

Home | Current Version | Previous Version | Graphics & Text | Print | Product List | Glossary Off
Versions: 1 2 3 4 5 6 7 8 9 10 11 12 13 14 15 16 17 18 19 20 21 22 23 24 25 26 27 28 29 30 31 32 33 34 35 36 37 38 39 40 41 42 43 44 45 46 47 48 49 50

000
ASUS43 KMKX 270200
RWRWI

WISCONSIN REGIONAL WEATHER ROUNDUP
NATIONAL WEATHER SERVICE MILWAUKEE/SULLIVAN WI
900 PM CDT MON SEP 26 2016

NOTE: "FAIR" INDICATES FEW OR NO CLOUDS BELOW 12,000 FEET WITH NO
SIGNIFICANT WEATHER AND/OR OBSTRUCTIONS TO VISIBILITY.

WIZ001-002-006>008-014>016-023>028-270300-
NORTHWEST WISCONSIN

CITY           SKY/WX    TMP DP  RH WIND       PRES   REMARKS
SUPERIOR ARPT  DRIZZLE   54  44  69 W14G29    29.75F
ASHLAND        CLOUDY    51  47  86 SW10G20   29.71F
HAYWARD        LGT RAIN  54  42  64 W9        29.77F
SIREN          CLOUDY    56  40  56 W9        29.81F
CUMBERLAND     CLOUDY    54  37  54 W15G23    29.82S
RICE LAKE      MOCLDY    56  38  51 W9        29.83S
CHETEK         NOT AVBL
LADYSMITH      CLOUDY    56  42  59 W9        29.80F
EAU CLAIRE     NOT AVBL
MENOMONIE      CLEAR     54  38  55 SW7       29.84F
NEW RICHMOND   CLEAR     50  39  66 W8        29.86S
OSCEOLA        CLEAR     52  40  63 W6        29.88S
$$

WIZ003>005-009-010-017-018-270300-
NORTH CENTRAL WISCONSIN

CITY           SKY/WX    TMP DP  RH WIND       PRES   REMARKS
MANITOWISH WTR NOT AVBL
ARBOR VITAE    RAIN      49  47  93 W16       29.73S
WOODRUFF       RAIN      49  47  93 W16       29.73S
RHINELANDER    LGT RAIN  49  46  90 W13       29.75F
EAGLE RIVER    DRIZZLE   48  46  95 W15       29.70F
LAND O LAKES   LGT RAIN  48  46  93 W9G18     29.70S
PHILLIPS       DRIZZLE   49  46  87 W3        29.76S
TOMAHAWK       DRIZZLE   50  42  74 W6        29.77S
MEDFORD        CLOUDY    53  40  62 W9        29.78F
MERRILL        CLOUDY    53  43  69 W8        29.77F
$$

WIZ029-030-035-036-043>047-270300-
CENTRAL WISCONSIN

CITY           SKY/WX    TMP DP  RH WIND       PRES   REMARKS
WAUSAU         CLOUDY    54  40  59 W13       29.77F
MOSINEE        MOCLDY    52  43  71 SW9       29.80F
MARSHFIELD     PTCLDY    53  40  61 W9        29.81S
STEVENS POINT  MOCLDY    52  39  62 SW7       29.81F
WAUPACA        PTCLDY    56  40  56 SW9       29.81F
WAUTOMA        PTCLDY    52  41  66 SW7       29.84F
WISC RAPIDS    PTCLDY    52  42  69 W7        29.83F
CAMP DOUGLAS   NOT AVBL
$$

WIZ011>013-019>022-031-037>040-048>050-270300-
NORTHEAST WISCONSIN

CITY           SKY/WX    TMP DP  RH WIND       PRES   REMARKS
ANTIGO         CLOUDY    50  42  73 CALM      29.76F
SHAWANO        CLOUDY    57  41  54 SW8       29.78S
OCONTO         NOT AVBL
STURGEON BAY   CLOUDY    58  42  55 SW14      29.76F
GREEN BAY      CLOUDY    56  42  59 SW8       29.79F
MANITOWOC      NOT AVBL
APPLETON       MOCLDY    55  37  50 SW10      29.81S
CLINTONVILLE   NOT AVBL
OSHKOSH        PTCLDY    55  40  56 SW3       29.82F
$$

WIZ032>034-041-042-053>061-270300-
SOUTHWEST WISCONSIN

CITY           SKY/WX    TMP DP  RH WIND       PRES   REMARKS
LA CROSSE      CLEAR     62  36  37 W12       29.87S
SPARTA         CLEAR     45  43  94 CALM      29.87S
VIROQUA        PTCLDY    54  34  48 W8        29.89F
BOSCOBEL       CLEAR     55  38  52 SW6       29.92R
PRAIRIE DU CHI CLEAR     59  33  38 W6        29.92S
PLATTEVILLE    CLEAR     56  38  51 W9        29.94S
$$

WIZ056-057-062-063-064-067-068-270300-
SOUTH CENTRAL WISCONSIN

CITY           SKY/WX    TMP DP  RH WIND       PRES   REMARKS
REEDSBURG      NOT AVBL
BARABOO/DELLS  CLEAR     50  40  68 SW3       29.88S
LONE ROCK      NOT AVBL
MINERAL POINT  CLEAR     55  36  47 W9        29.92S
MADISON        CLEAR     55  39  54 VRB3      29.88S
MIDDLETON      NOT AVBL
WATERTOWN      CLEAR     52  41  67 CALM      29.88S
MONROE         CLEAR     57  36  44 SW14      29.92S
JANESVILLE     CLEAR     57  37  47 W6        29.91S
$$

WIZ051-052-058>065-066-070>072-270300-
SOUTHEAST WISCONSIN

CITY           SKY/WX    TMP DP  RH WIND       PRES   REMARKS
MILWAUKEE      CLEAR     60  38  43 W6        29.88S
WAUKESHA       CLEAR     52  37  58 W3        29.90R
MILWAUKEE/TIMM CLEAR     55  36  47 W5        29.89R
RACINE         CLEAR     58  36  43 SW7       29.90S
BURLINGTON     CLEAR     53  37  53 SW6       29.90S
KENOSHA        CLEAR     55  38  52 SW10      29.90S
FOND DU LAC    CLEAR     53  40  61 SW6       29.85F
SHEBOYGAN      PTCLDY    53  41  63 SW9       29.84S
WEST BEND      CLEAR     54  37  54 W5        29.87S
JUNEAU         CLEAR     55  38  54 W6        29.89R
$$

LSZ147-162-270300-
LAKE SUPERIOR

STATION/POSITION TIME  TEMP    WIND        PRES    WAVE
                       AIR SEA DIR/SP/G            HT/PER
                 (UTC) (F)     (DEG/KT/KT) (MB)    (FT/S)
W MID LAKE BUOY  0050   51 47  250/ 21/ 27 1001.2R   7/ 7
DEVILS ISLAND    0100   53     250/ 29/ 33 1003.9F
SAXON HARBOR     0140   52     210/  9/ 14 1005.4F
$$

LMZ867-665-643>646-270300-
LAKE MICHIGAN

STATION/POSITION TIME  TEMP    WIND        PRES    WAVE
                       AIR SEA DIR/SP/G            HT/PER
                 (UTC) (F)     (DEG/KT/KT) (MB)    (FT/S)
CHAMBERS ISLAND  0100   57     220/ 10/ 20 1006.4F
N MID LAKE BUOY  0050   59 67  250/ 29/ 35 1004.9R   6/ 7
NORTHPORT PIER   0100   57     270/ 10/ 23 1006.8S
KEWAUNEE LAKESHO 0100   58     250/  7/ 10 1008.6S
SHEBOYGAN LAKESH 0100   60     260/  9/ 13 1010.2R
PORT WASHINGTON  0140   58     240/  3/  5 1012.2R
ATWATER BUOY     0100   60 54  240/  6/  6 1011.5R
MILWAUKEE LAKESH 0110   63     260/  7/  9   N/A
S MID LAKE BUOY  0050   67 71  240/ 23/ 29 1010.9S   5/ 5
KENOSHA   LAKESH 0100   64     240/ 10/ 14 1012.2S
$$

TC  - TEMPERATURE IN CELSIUS
VSB - VISIBILITY IN STATUTE MILES
WCI - WIND CHILL INDEX
HX  - HEAT INDEX





USA.gov is the U.S. government's official web portal to all federal, state and local government web resources and services.